Regional Weather Roundup
Issued by NWS Goodland, KS

Home | Current Version | Previous Version | Text Only | Print | Product List | Glossary Off
Versions: 1 2 3 4 5 6 7 8 9 10 11 12 13 14 15 16 17 18 19 20 21 22 23 24 25 26 27 28 29 30 31 32 33 34 35 36 37 38 39 40 41 42 43 44 45 46 47 48 49 50

000
ASUS43 KGLD 291959
RWRGLD

GOODLAND FORECAST AREA HOURLY WEATHER ROUNDUP
NATIONAL WEATHER SERVICE GOODLAND KS
200 PM MDT FRI JUL 29 2016

...OFFICIAL OBSERVATIONS...

CITY           SKY/WX    TMP DP  RH WIND       PRES   REMARKS
GOODLAND KS    CLOUDY    70  63  78 E12       30.14F
HILL CITY KS   SUNNY     84  64  50 S5        30.07F
IMPERIAL NEB   PTSUNNY   79  59  50 SE8       30.11F
MCCOOK NEB     PTSUNNY   82  59  45 SE8       30.09F
AKRON CO       MOSUNNY   77  55  46 SE15      30.17F
BURLINGTON CO  MOSUNNY   77  60  55 SE17      30.16F
LIMON CO       MOSUNNY   78  57  48 S12G26    30.20S
$$

...UNOFFICIAL OBSERVATIONS...

CITY           SKY/WX    TMP DP  RH WIND       PRES   REMARKS
NORTON KS      PTSUNNY   84  54  34 CALM      30.07F
SHARON SPRINGS   N/A     78  68  72 E5          N/A
KIT CARSON CO    N/A     78  61  55 MISG        N/A
YUMA CO          N/A     76  61  59 S7G14       N/A
$$



USA.gov is the U.S. government's official web portal to all federal, state and local government web resources and services.